Dewpoint
-2 -2 -2 -2 -1 0 1 0 0 3 9 11 11 11 11 12 12 12 12 12 12 10 9 10 10 10 10 10 8 9 8 0 -2 -2 -4 -7 -10 -12 -13 -12 -13 -13 -13
-3 -3 -3 -2 -2 -2 -2 -2 -1 -0 3 9 10 10 10 11 11 12 12 11 11 11 10 9 10 11 11 10 9 9 8 0 -2 -1 -3 -8 -7 -11 -13 -12 -11 -14 -13
-4 -4 -4 -3 -3 -2 -2 -2 -2 -2 0 5 9 10 10 10 10 11 11 11 11 11 10 10 10 11 11 10 9 9 7 0 -1 -1 -4 -9 -12 -13 -15 -16 -15 -13 -12
-4 -4 -5 -5 -4 -4 -4 -3 -2 -2 -1 5 7 9 10 9 9 8 9 10 11 10 10 10 10 11 11 10 9 9 8 2 -1 -1 -3 -9 -10 -17 -20 -17 -16 -14 -13
-4 -4 -4 -4 -4 -4 -4 -4 -4 -2 -1 1 6 8 9 9 8 8 8 10 10 9 9 9 11 11 11 9 9 9 8 1 -3 -2 -4 -9 -10 -17 -19 -19 -18 -17 -16
-7 -5 -5 -5 -5 -5 -4 -4 -5 -5 -2 -0 -0 4 8 8 8 8 7 9 9 9 9 10 11 11 10 9 9 9 6 -2 -3 -6 -7 -10 -15 -18 -18 -18 -18 -17 -18
-5 -7 -8 -8 -8 -7 -6 -5 -5 -5 -5 -3 -0 2 3 5 6 6 7 8 8 8 9 10 11 10 10 9 10 8 4 1 -4 -4 -10 -12 -16 -17 -17 -17 -17 -16 -17
-1 -2 -2 -2 -6 -7 -7 -8 -7 -5 -5 -5 -4 -0 3 4 5 6 7 7 7 7 8 10 10 10 10 10 9 5 3 -2 -4 -8 -12 -14 -16 -16 -16 -16 -16 -16 -17
2 2 0 -1 -1 -1 -4 -5 -6 -7 -7 -7 -5 -4 2 5 5 5 7 7 8 8 10 10 9 9 9 8 4 3 1 -8 -10 -13 -13 -15 -16 -16 -16 -16 -16 -15 -13
2 2 2 3 2 2 0 -1 -4 -5 -6 -6 -6 -2 5 5 5 6 7 8 9 10 10 9 8 8 6 3 3 -2 -3 -6 -7 -15 -15 -15 -16 -15 -15 -16 -16 -16 -15
3 3 3 3 3 3 2 2 0 -1 -2 -3 -4 3 8 8 7 6 7 8 10 10 9 9 7 5 3 4 -4 -3 -2 -11 -12 -14 -15 -15 -15 -15 -16 -17 -17 -17 -15
4 4 4 2 2 2 2 2 2 1 1 -0 -2 -2 7 7 7 7 7 10 9 9 9 7 5 2 -0 -5 -7 -9 -12 -11 -14 -15 -15 -15 -15 -17 -18 -17 -17 -17 -17
4 3 2 2 2 3 4 3 2 2 2 2 -0 1 6 7 8 9 9 8 8 8 5 3 2 1 -5 -11 -8 -9 -12 -13 -14 -14 -15 -16 -19 -20 -20 -19 -18 -16 -14
4 2 1 2 2 4 4 3 3 4 3 3 3 5 8 9 8 7 7 7 7 4 2 -1 -2 -6 -4 -9 -11 -9 -6 -12 -14 -15 -18 -21 -22 -22 -21 -19 -16 -12 -10
3 1 1 2 3 3 4 5 5 4 5 5 4 6 8 7 6 6 6 4 2 1 -1 -2 -8 -11 -9 -6 -5 -12 -13 -14 -16 -20 -22 -24 -25 -24 -20 -13 -11 -9 -9
2 1 1 2 1 1 2 2 3 3 5 4 6 6 4 4 4 3 1 -1 -2 -3 -3 -2 -1 -4 -4 -11 -13 -12 -13 -17 -20 -23 -26 -28 -28 -24 -20 -17 -15 -9 -8
1 -1 -1 1 3 2 0 1 1 2 2 4 2 1 1 1 0 -1 -2 -4 -5 -1 0 -1 -3 -3 -8 -7 -9 -14 -17 -21 -23 -27 -29 -30 -25 -21 -21 -18 -12 -9 -9
0 -2 -3 -1 -1 1 2 1 -2 -1 -1 -0 -2 -2 -2 -1 -1 -2 -1 -1 -1 -1 -1 -2 -7 -11 -13 -13 -14 -18 -21 -23 -26 -28 -27 -23 -23 -23 -18 -10 -8 -8 -9
-1 -3 -4 -4 -2 -2 -1 0 -0 -0 -2 -3 -3 -5 -3 -0 -1 -0 -0 -0 -0 -2 -8 -12 -11 -11 -13 -15 -18 -21 -24 -26 -27 -26 -24 -24 -22 -20 -9 -8 -8 -8 -9
-4 -4 -6 -6 -4 -3 -2 -2 -4 -5 -5 -6 -4 -1 0 -0 -0 -1 -1 -2 -2 -9 -6 -7 -14 -13 -16 -19 -21 -24 -25 -27 -27 -27 -25 -23 -20 -15 -8 -8 -9 -9 -11
-5 -6 -6 -6 -6 -6 -6 -5 -6 -5 -3 -1 -0 -0 -0 -1 -2 -3 -4 -7 -4 -6 -14 -13 -14 -17 -19 -21 -23 -24 -25 -24 -25 -24 -23 -21 -15 -9 -9 -9 -11 -12 -10
-6 -6 -6 -6 -7 -7 -6 -6 -1 -1 0 0 -0 -1 -1 -1 -1 -2 -2 -7 -14 -15 -13 -14 -17 -20 -22 -25 -28 -29 -26 -24 -22 -21 -18 -14 -10 -10 -16 -19 -18 -11 -11
-2 -4 -3 -3 -4 -4 -1 -0 -0 -0 0 0 -0 -0 -0 -1 -1 -8 -14 -15 -15 -13 -14 -18 -22 -23 -26 -29 -28 -25 -24 -22 -19 -15 -11 -12 -15 -18 -19 -18 -16 -12 -11
0 -0 -1 -1 -1 -1 0 1 -0 -0 -0 -0 -1 -1 -1 -7 -14 -15 -16 -16 -13 -14 -19 -22 -24 -27 -29 -27 -25 -24 -23 -19 -14 -13 -17 -19 -19 -19 -18 -16 -12 -11 -11
1 1 1 1 0 0 0 0 0 -1 -2 -2 -1 -2 -12 -14 -16 -17 -17 -14 -13 -19 -22 -24 -28 -28 -26 -24 -23 -22 -16 -11 -12 -16 -20 -20 -20 -19 -17 -12 -11 -11 -10
1 0 1 1 1 1 1 -1 -5 -5 -1 -0 -4 -12 -15 -17 -18 -17 -14 -13 -19 -22 -24 -27 -29 -26 -24 -22 -21 -21 -18 -18 -19 -19 -18 -19 -18 -16 -13 -11 -11 -10 -10
Wind_Speed
33 27 26 30 37 42 42 39 37 31 38 38 38 37 34 31 32 29 28 26 25 28 29 28 28 26 24 22 20 17 14 14 13 10 9 9 8 7 6 7 7 9 10
37 33 29 24 25 32 39 38 36 34 38 41 41 39 36 33 34 34 30 31 29 26 28 31 31 29 27 25 22 19 17 15 14 10 9 6 7 7 8 10 11 11 12
41 39 36 34 32 30 25 34 39 39 37 41 45 43 38 36 37 36 35 36 35 32 29 28 31 31 30 26 23 21 18 17 15 11 8 5 5 6 10 10 13 13 13
30 29 28 31 33 31 31 28 27 31 34 41 45 46 45 43 39 40 40 39 39 37 32 31 33 34 31 28 25 22 20 17 15 12 12 10 10 6 5 8 11 14 15
14 16 17 19 23 26 27 28 28 28 32 30 40 46 46 45 42 41 41 43 43 38 37 34 37 36 28 27 26 22 21 17 16 13 12 11 11 10 10 11 11 14 17
7 2 4 8 12 15 23 24 23 30 32 33 36 36 46 45 44 43 42 44 43 41 39 39 37 31 26 29 27 23 20 17 14 13 12 11 10 11 11 14 19 22 22
14 7 5 3 6 9 13 19 25 26 25 27 35 37 36 43 45 43 42 43 42 40 40 39 35 31 26 28 27 23 20 16 15 14 12 11 13 13 14 15 18 22 28
21 16 13 9 7 8 12 15 18 23 25 29 29 35 38 39 41 43 41 42 43 42 40 38 34 30 27 27 26 22 19 16 15 13 12 13 12 13 14 15 17 23 25
25 21 17 15 15 13 11 15 18 22 23 26 31 32 38 41 39 42 41 41 41 40 38 35 32 28 26 27 22 20 15 13 12 13 14 12 12 14 15 16 18 19 17
26 26 26 26 25 25 24 21 19 22 26 26 27 29 34 39 40 39 39 38 38 37 35 33 30 27 27 24 21 18 15 13 13 12 12 13 13 14 15 17 18 20 22
31 30 29 30 29 27 28 28 30 25 27 26 22 23 31 38 37 36 36 35 33 34 32 31 29 27 25 23 19 16 14 11 12 13 14 13 13 15 17 18 20 22 24
25 26 26 25 26 26 27 30 30 34 29 29 22 20 24 29 31 31 31 31 31 31 31 30 29 26 23 19 15 13 11 10 11 12 13 14 15 16 18 20 22 23 24
28 24 22 24 28 33 32 25 26 31 31 32 27 24 26 26 27 28 27 27 29 32 32 30 28 25 20 17 14 11 8 8 10 13 15 15 17 18 20 22 24 24 25
20 17 19 24 29 33 31 19 21 21 22 33 31 28 30 26 26 24 24 28 32 34 31 28 23 21 18 15 11 8 8 9 12 14 15 16 18 20 21 23 22 23 25
14 14 18 22 23 20 14 4 13 18 26 37 31 28 28 26 25 26 28 32 33 32 29 25 20 16 13 10 6 6 8 10 11 13 15 17 19 20 20 20 21 22 26
10 10 13 15 12 8 2 6 11 17 26 27 28 28 26 26 26 27 29 33 32 29 27 23 17 13 7 8 6 6 9 11 12 14 16 17 19 20 20 21 22 20 22
6 4 6 8 7 4 3 6 11 16 21 23 22 24 25 26 28 28 30 30 28 26 23 18 15 10 8 7 6 8 9 11 13 16 17 18 19 21 23 21 17 19 22
4 1 2 1 5 8 10 13 16 17 20 23 24 23 24 24 24 28 28 27 24 21 17 14 11 8 6 6 6 7 9 12 14 15 17 19 21 22 21 21 21 23 26
3 4 5 6 8 9 11 12 15 14 14 16 15 17 16 25 29 27 27 24 20 17 14 10 5 4 4 5 7 8 11 12 14 16 18 22 23 23 20 21 25 30 32
4 5 7 9 11 9 8 9 13 12 14 16 15 20 26 28 29 24 21 18 14 14 8 6 6 3 3 6 9 13 15 17 18 20 22 23 23 21 18 23 27 30 30
6 8 10 9 9 9 8 11 14 16 18 20 23 26 28 26 23 21 18 16 11 8 8 4 2 2 4 7 10 12 16 18 22 24 24 24 21 18 22 21 23 23 23
10 10 10 12 14 13 11 17 15 21 25 27 28 25 23 22 20 16 13 11 10 7 4 1 1 4 7 10 12 14 16 18 22 23 23 22 20 22 23 23 22 20 21
11 11 9 12 14 11 9 21 25 26 26 23 22 21 20 16 15 14 12 9 6 3 1 1 3 6 9 11 12 15 17 19 20 21 20 23 26 25 24 20 19 18 19
15 17 18 19 18 19 22 22 23 22 21 20 20 18 16 16 14 10 8 5 2 0 2 4 6 8 9 12 14 16 18 19 20 21 24 24 24 21 19 18 16 16 19
18 18 19 21 22 22 21 20 20 20 19 17 15 14 14 12 11 8 5 2 1 2 4 6 8 9 11 13 15 18 19 18 19 22 23 22 20 18 18 17 17 18 20
23 21 20 20 21 20 21 20 19 17 14 15 14 14 12 10 8 4 2 2 2 5 8 10 11 13 15 15 17 18 18 20 21 22 22 20 18 19 19 19 21 20 22
Wind_Direction
247 253 254 247 241 241 247 250 251 245 234 231 230 233 232 217 220 221 226 228 229 225 220 222 223 231 231 233 229 232 237 233 239 253 265 273 272 269 281 289 272 290 290
255 250 249 250 249 248 243 245 248 249 241 234 229 231 232 227 224 217 220 232 232 229 228 226 228 232 230 229 229 233 234 233 238 247 263 259 269 256 278 273 272 274 281
263 259 254 253 252 253 249 244 245 246 248 238 228 229 230 229 229 226 218 226 234 236 228 231 232 233 235 233 233 231 235 237 241 250 249 252 241 275 270 256 256 264 272
260 264 262 252 251 253 251 247 247 244 245 237 235 230 226 224 224 227 227 223 231 236 236 233 231 234 235 230 230 233 242 240 247 256 262 257 271 272 266 264 261 265 270
272 276 270 260 255 252 251 248 247 247 248 245 237 237 236 232 232 227 229 224 228 236 237 235 230 232 233 227 226 235 241 235 237 252 262 263 270 268 267 279 266 267 273
48 329 265 258 258 253 243 246 246 246 243 243 245 240 238 235 230 228 228 227 226 234 234 233 230 224 234 226 229 233 232 233 243 251 261 269 275 278 277 278 284 288 294
42 31 14 297 254 253 249 246 250 250 248 251 246 242 244 239 235 231 230 230 231 235 231 231 223 219 227 229 228 230 230 237 242 253 260 274 277 279 280 282 289 295 300
8 5 8 1 318 272 258 258 256 255 252 251 252 246 241 238 237 233 232 233 235 236 232 228 222 219 224 226 221 220 223 232 243 254 263 271 275 283 285 288 293 299 299
353 346 332 312 302 296 276 253 252 262 260 263 254 250 238 234 234 235 232 233 234 232 229 225 220 217 223 217 215 215 218 226 243 255 264 270 283 284 288 292 295 296 298
340 331 326 317 306 296 275 259 245 245 260 259 262 256 242 231 231 232 235 234 232 225 224 216 212 212 212 209 211 208 212 225 250 260 271 279 284 288 291 295 296 295 294
336 332 324 315 309 299 287 271 248 243 241 251 255 253 236 223 223 229 231 231 227 218 215 210 205 207 207 209 200 208 219 226 250 264 273 281 288 290 293 295 295 295 296
333 324 321 319 313 305 294 279 258 245 244 239 241 239 237 225 229 225 226 220 213 209 205 203 202 200 198 197 199 207 214 241 260 270 282 286 290 293 294 296 297 298 298
328 331 329 328 323 318 308 282 266 248 240 228 230 230 226 221 220 211 209 208 204 201 195 195 194 191 189 192 198 217 224 256 274 282 280 288 293 295 297 299 299 301 302
329 332 333 328 330 326 319 292 243 242 238 218 216 215 209 205 201 210 205 201 198 190 185 181 181 181 188 195 195 222 265 265 275 280 286 295 298 298 298 299 301 303 302
331 338 337 337 330 333 336 305 220 224 208 202 206 201 193 193 190 193 195 190 184 179 172 166 167 172 192 195 213 238 260 274 279 287 293 298 297 297 296 297 301 302 302
333 337 339 336 324 343 23 158 174 183 187 186 179 180 180 182 183 188 182 177 170 164 160 165 168 182 199 204 214 274 284 286 289 292 297 299 300 299 298 298 296 297 299
319 344 358 345 350 7 100 125 150 161 164 158 159 168 173 176 176 172 163 153 155 157 154 155 178 173 202 244 266 270 284 291 297 303 306 307 307 306 306 305 304 302 297
278 192 104 36 60 81 99 109 112 131 145 153 156 165 176 170 154 150 153 149 151 150 152 165 165 177 211 246 273 286 293 301 309 314 314 312 312 313 315 318 311 304 299
251 201 161 142 130 122 125 132 135 140 141 145 146 152 153 149 147 149 146 149 151 137 149 159 158 217 246 282 292 298 308 314 317 314 316 317 319 319 320 317 309 306 304
192 191 176 165 158 159 163 155 139 132 120 128 140 147 142 143 145 141 137 141 137 131 151 182 185 214 279 303 316 323 322 318 316 320 321 321 318 318 322 309 306 303 309
175 173 168 163 155 148 158 144 134 130 130 136 137 139 143 138 140 140 131 136 143 158 167 167 194 270 305 317 318 312 311 313 316 321 321 321 322 324 313 312 304 309 314
161 167 164 150 146 149 157 140 138 135 134 135 141 140 138 140 134 139 134 134 162 164 163 191 307 320 316 310 307 307 310 315 318 322 323 326 327 316 319 316 313 311 308
154 156 163 150 147 148 149 135 130 138 140 139 139 140 133 129 127 123 145 157 158 164 207 306 316 309 306 309 313 315 316 321 324 326 325 317 321 319 318 319 318 316 316
143 137 138 130 135 134 129 131 133 136 137 138 139 140 135 126 129 145 157 172 181 218 322 316 311 312 317 319 316 320 325 329 330 327 325 323 320 320 320 321 324 325 327
152 145 139 138 135 134 135 136 137 142 141 136 129 131 135 143 152 165 175 178 317 323 317 322 328 325 322 326 330 331 332 333 323 321 325 326 326 329 329 332 335 334 332
162 159 155 147 144 147 148 147 150 151 146 148 148 145 156 163 171 178 210 263 300 329 336 333 330 329 331 328 326 326 328 327 326 326 327 330 332 335 336 337 336 338 336
Height
1450 1455 1458 1461 1466 1469 1470 1474 1478 1480 1484 1487 1488 1491 1494 1497 1500 1502 1504 1507 1509 1512 1514 1517 1519 1520 1522 1525 1527 1529 1529 1529 1530 1530 1529 1528 1527 1527 1525 1525 1526 1525 1523
1446 1450 1453 1456 1458 1461 1465 1467 1469 1472 1475 1479 1482 1485 1489 1492 1494 1499 1502 1504 1505 1508 1510 1513 1515 1517 1518 1521 1523 1525 1525 1526 1526 1527 1526 1525 1525 1524 1523 1523 1523 1521 1520
1439 1443 1446 1450 1454 1456 1458 1460 1462 1466 1467 1471 1474 1478 1483 1487 1490 1493 1495 1498 1500 1501 1505 1508 1511 1513 1514 1517 1520 1520 1522 1523 1523 1523 1524 1522 1521 1519 1519 1519 1519 1518 1517
1434 1436 1438 1442 1446 1449 1453 1454 1456 1458 1460 1462 1466 1467 1471 1476 1480 1485 1489 1494 1495 1497 1500 1503 1505 1507 1509 1511 1515 1517 1518 1519 1520 1520 1519 1519 1517 1517 1517 1516 1515 1515 1514
1430 1432 1434 1436 1440 1444 1446 1448 1450 1452 1455 1455 1458 1461 1464 1470 1474 1478 1483 1488 1490 1492 1494 1496 1499 1501 1503 1508 1511 1513 1514 1515 1516 1515 1515 1515 1514 1513 1513 1512 1513 1512 1510
1431 1432 1433 1434 1436 1438 1440 1442 1444 1446 1449 1449 1451 1454 1456 1463 1466 1471 1475 1479 1484 1486 1488 1491 1494 1496 1499 1502 1505 1508 1510 1511 1511 1512 1512 1511 1511 1509 1509 1508 1507 1506 1504
1434 1435 1435 1435 1436 1436 1436 1438 1439 1441 1443 1443 1444 1446 1450 1455 1459 1463 1468 1473 1478 1481 1484 1486 1489 1492 1495 1498 1500 1502 1505 1508 1508 1508 1507 1506 1507 1506 1505 1504 1502 1500 1497
1436 1436 1435 1434 1433 1433 1434 1435 1435 1436 1437 1438 1438 1440 1444 1448 1453 1458 1462 1467 1471 1475 1478 1482 1485 1489 1491 1493 1495 1497 1499 1503 1505 1504 1504 1503 1501 1502 1501 1499 1498 1494 1492
1434 1433 1432 1432 1432 1432 1432 1431 1431 1431 1431 1431 1432 1433 1436 1441 1446 1450 1456 1460 1464 1469 1473 1477 1481 1485 1487 1490 1492 1494 1494 1500 1502 1502 1500 1499 1496 1497 1496 1495 1493 1492 1488
1432 1430 1428 1426 1425 1425 1426 1426 1425 1425 1425 1425 1426 1427 1430 1434 1439 1445 1449 1454 1458 1464 1468 1473 1478 1481 1484 1487 1489 1491 1492 1494 1497 1498 1497 1495 1494 1494 1493 1491 1489 1488 1485
1425 1422 1421 1420 1418 1416 1415 1415 1416 1417 1416 1419 1421 1422 1425 1429 1434 1439 1444 1448 1454 1459 1464 1469 1474 1478 1482 1484 1486 1488 1489 1491 1493 1495 1495 1492 1490 1490 1489 1487 1485 1483 1481
1424 1421 1418 1414 1412 1409 1406 1403 1405 1407 1409 1414 1416 1418 1422 1427 1431 1435 1438 1444 1449 1454 1459 1465 1470 1475 1479 1482 1484 1486 1487 1488 1489 1490 1490 1488 1485 1485 1484 1481 1479 1477 1475
1420 1416 1414 1410 1405 1399 1395 1394 1394 1396 1400 1407 1411 1414 1418 1422 1427 1431 1435 1441 1446 1451 1457 1462 1467 1472 1477 1480 1481 1483 1484 1485 1486 1486 1487 1484 1481 1480 1478 1476 1473 1471 1468
1418 1415 1411 1407 1399 1393 1386 1383 1387 1391 1396 1403 1407 1411 1415 1420 1425 1429 1435 1440 1444 1449 1455 1461 1467 1472 1475 1479 1480 1481 1481 1482 1483 1484 1483 1479 1476 1474 1472 1470 1468 1465 1462
1416 1412 1409 1404 1401 1396 1390 1385 1387 1390 1393 1399 1404 1409 1415 1420 1424 1427 1432 1438 1443 1448 1453 1459 1468 1473 1479 1478 1476 1479 1480 1480 1480 1479 1477 1474 1471 1469 1467 1465 1462 1459 1456
1413 1411 1409 1408 1406 1401 1396 1393 1393 1394 1397 1402 1404 1410 1415 1419 1421 1428 1431 1440 1445 1450 1454 1461 1466 1471 1475 1479 1477 1476 1476 1478 1477 1475 1472 1469 1467 1465 1462 1459 1457 1455 1452
1412 1412 1410 1410 1407 1403 1401 1399 1399 1400 1402 1404 1407 1413 1417 1419 1422 1428 1437 1443 1450 1453 1456 1459 1466 1468 1475 1477 1474 1474 1475 1475 1473 1469 1466 1464 1462 1460 1456 1453 1451 1449 1447
1413 1412 1411 1411 1409 1407 1404 1404 1406 1407 1407 1408 1410 1416 1420 1424 1427 1437 1442 1448 1452 1456 1458 1463 1469 1471 1473 1473 1473 1473 1472 1471 1468 1465 1462 1460 1457 1454 1449 1446 1445 1443 1440
1414 1413 1413 1412 1411 1411 1410 1410 1410 1412 1415 1417 1421 1425 1429 1429 1436 1442 1443 1444 1453 1457 1464 1468 1468 1469 1471 1471 1470 1470 1469 1467 1464 1462 1459 1455 1451 1447 1444 1442 1438 1434 1431
1414 1415 1415 1414 1413 1413 1413 1413 1414 1417 1421 1424 1427 1428 1430 1436 1440 1446 1449 1456 1460 1463 1465 1467 1468 1469 1469 1468 1467 1467 1464 1462 1460 1458 1454 1450 1446 1442 1441 1438 1433 1427 1424
1415 1416 1416 1416 1416 1417 1416 1416 1418 1420 1422 1426 1430 1432 1438 1440 1446 1452 1456 1461 1463 1465 1466 1467 1467 1467 1467 1467 1466 1464 1460 1458 1454 1451 1448 1444 1441 1438 1436 1432 1427 1423 1420
1416 1417 1417 1418 1418 1419 1419 1420 1421 1423 1426 1430 1436 1440 1444 1448 1450 1454 1459 1462 1464 1466 1466 1466 1467 1466 1465 1465 1463 1460 1457 1454 1450 1446 1442 1439 1436 1433 1429 1425 1421 1418 1413
1417 1418 1419 1420 1421 1423 1423 1424 1426 1430 1434 1438 1443 1446 1448 1451 1456 1459 1461 1464 1465 1466 1466 1466 1465 1465 1464 1462 1459 1456 1453 1449 1445 1441 1438 1434 1431 1427 1424 1420 1416 1413 1409
1419 1420 1421 1421 1424 1425 1428 1430 1433 1437 1441 1444 1447 1450 1453 1455 1457 1461 1464 1465 1465 1465 1465 1465 1464 1462 1460 1458 1455 1452 1448 1445 1441 1437 1433 1430 1426 1423 1419 1416 1413 1409 1405
1420 1423 1424 1426 1427 1430 1433 1436 1439 1442 1445 1448 1450 1453 1456 1458 1460 1463 1464 1465 1465 1465 1464 1462 1461 1459 1457 1454 1451 1447 1444 1441 1437 1433 1430 1426 1422 1418 1415 1411 1408 1405 1401
1421 1424 1427 1429 1431 1434 1437 1440 1444 1447 1449 1452 1454 1456 1459 1461 1463 1464 1464 1465 1464 1462 1461 1459 1457 1455 1452 1450 1447 1444 1440 1437 1433 1429 1425 1422 1418 1414 1411 1407 1404 1401 1397